This demonstration page uses our WeatherBlox Daily Observations layout. Learn more.

38.88101, -77.10428

Hourly Observations for March 31, 2015

Temp ( °F °C ) Dew Point ( °F °C ) Humidity (%) Winds ( mph kmh ) Pressure ( in mb ) Visibility ( mi km ) Precip ( " mm )
12:52 am 00:52 Mostly Cloudy 50 10 26 -3.3 39 39 SSW 6 9 29.96 1015 10 16.0934 0 0
1:52 am 01:52 Mostly Cloudy 49 9.4 26 -3.3 41 41 SW 7 11 29.95 1014 10 16.0934 0 0
2:52 am 02:52 Partly Cloudy 52 11.1 24 -4.4 34 34 SSW 6 9 29.94 1014 10 16.0934 0 0
3:52 am 03:52 Mostly Clear 48 8.9 24 -4.4 39 39 SSW 6 9 29.93 1014 10 16.0934 0 0
4:52 am 04:52 Mostly Clear 47 8.3 24 -4.4 41 41 SSW 6 9 29.93 1013 10 16.0934 0 0
5:52 am 05:52 Mostly Clear 46 7.8 27 -2.8 47 47 SW 3 6 29.93 1014 10 16.0934 0 0
6:52 am 06:52 Mostly Cloudy 45 7.2 36 2.2 71 71 S 6 9 29.94 1014 10 16.0934 0 0
7:52 am 07:52 Partly Cloudy 47 8.3 33 0.6 59 59 S 5 7 29.95 1014 10 16.0934 0 0
8:52 am 08:52 Partly Cloudy 50 10 31 -0.6 48 48 S 7 11 29.94 1014 10 16.0934 0 0
9:52 am 09:52 Partly Cloudy 54 12.2 33 0.6 45 45 S 10 17 29.91 1013 10 16.0934 0 0
10:52 am 10:52 Partly Cloudy 62 16.7 30 -1.1 30 30 S 17 28 29.85 1011 10 16.0934 0 0
11:52 am 11:52 Partly Cloudy 65 18.3 31 -0.6 28 28 SSW 22 35 29.8 1009 10 16.0934 0 0
12:52 pm 12:52 Partly Cloudy 67 19.4 30 -1.1 25 25 SSW 24 39 29.74 1007 10 16.0934 0 0
1:52 pm 13:52 Partly Cloudy 69 20.6 32 0 25 25 S 18 30 29.66 1004 10 16.0934 0 0
2:52 pm 14:52 Partly Cloudy 73 22.8 32 0 22 22 S 23 37 29.6 1003 10 16.0934 0 0
3:52 pm 15:52 Mostly Cloudy 70 21.1 30 -1.1 23 23 SSW 18 30 29.58 1002 10 16.0934 0 0
4:52 pm 16:52 Mostly Cloudy with Light Rain 70 21.1 33 0.6 26 26 WSW 21 33 29.59 1002 10 16.0934 0 0.0254
5:52 pm 17:52 Cloudy with Light Rain 66 18.9 39 3.9 37 37 W 17 28 29.62 1003 10 16.0934 0.01 0.254
6:38 pm 18:38 Cloudy with Light Thunderstorms 64 18 41 5 43 43 W 7 11 29.62 1003 10 16.0934 0 0
6:52 pm 18:52 Mostly Cloudy with Thunderstorms 66 18.9 39 3.9 37 37 WNW 10 17 29.62 1003 10 16.0934 0 0.0254
6:55 pm 18:55 Mostly Cloudy 66 19 39 4 37 37 WNW 14 22 29.65 1004 10 16.0934 0 0
7:10 pm 19:10 Mostly Cloudy 59 15 41 5 51 51 NNW 30 48 29.68 1005 10 16.0934 0 0
7:52 pm 19:52 Mostly Cloudy with Light Rain 56 13.3 43 6.1 62 62 NNW 17 28 29.72 1007 10 16.0934 0 0.0254
8:52 pm 20:52 Cloudy with Light Rain 55 12.8 44 6.7 67 67 N 16 26 29.77 1008 10 16.0934 0 0.0254
9:52 pm 21:52 Partly Cloudy 53 11.7 40 4.4 61 61 N 16 26 29.81 1009 10 16.0934 0 0.0254
10:52 pm 22:52 Mostly Clear 49 9.4 38 3.3 66 66 N 15 24 29.84 1011 10 16.0934 0 0
11:52 pm 23:52 Partly Cloudy 47 8.3 37 2.8 69 69 N 21 33 29.89 1012 10 16.0934 0 0

Powered by AerisWeather